Regional Weather Roundup
Issued by NWS Corpus Christi, TX

Home | Current Version | Previous Version | Text Only | Print | Product List | Glossary On
Versions: 1 2 3 4 5 6 7 8 9 10 11 12 13 14 15 16 17 18 19 20 21 22 23 24 25 26 27 28 29 30 31 32 33 34 35 36 37 38 39 40 41 42 43 44 45 46 47 48 49 50
000
ASUS44 KCRP 010711
RWRCRP

SOUTH TEXAS REGIONAL WEATHER ROUNDUP
NATIONAL WEATHER SERVICE CORPUS CHRISTI TX
100 AM CST MON MAR 01 2021


TXZ229>244-010800-
...CORPUS CHRISTI AREA OBSERVATIONS...

CITY           SKY/WX    TMP DP  RH WIND       PRES   REMARKS
CORPUS CHRISTI DRIZZLE   71  69  93 S15       29.85S
NAS CORPUS CHR CLOUDY    71  69  93 SE14      29.85S
ROCKPORT       CLOUDY    68  67  96 SE9       29.86S FOG
KINGSVILLE NAS CLOUDY    72  67  84 SE9       29.84R
ALICE          CLOUDY    73  70  90 SE7       29.83S
$$

...VICTORIA AREA OBSERVATIONS...

CITY           SKY/WX    TMP DP  RH WIND       PRES   REMARKS
PORT LAVACA    CLOUDY    70  64  83 E6        29.89F
VICTORIA       CLOUDY    70  68  93 E8        29.89S FOG
BEEVILLE       FOG       72  72 100 SE7       29.86R VSB 1
PLEASANTON     CLOUDY    71  69  95 E5        29.89S FOG
SAN ANTONIO    LGT RAIN  60  50  69 N9G20     29.92S
$$

...LAREDO AREA OBSERVATIONS...

CITY           SKY/WX    TMP DP  RH WIND       PRES   REMARKS
LAREDO         CLOUDY    73  69  87 SE8       29.82S
COTULLA        CLOUDY    73  68  84 E8        29.85S
DEL RIO        CLOUDY    68  48  48 N6        29.90R
MCALLEN        CLOUDY    75  68  78 SE15G22   29.81S
HEBBRONVILLE   CLOUDY    73  63  71 S10       29.85S HAZE
$$

...OTHER TEXAS OBSERVATIONS...

CITY           SKY/WX    TMP DP  RH WIND       PRES   REMARKS
BROWNSVILLE    CLOUDY    74  67  78 SE15      29.82F
HOUSTON        CLOUDY    72  69  90 S5        29.91S
COL. STATION   LGT RAIN  59  55  87 N17       29.94R
AUSTIN         CLOUDY    58  46  64 N21       29.97R
TEMPLE         CLOUDY    54  41  61 N15G22    29.99S
WACO           CLOUDY    56  35  45 NE20G29   30.01R
FORT WORTH     CLOUDY    51  35  54 N17       30.05R
WICHITA FALLS  CLOUDY    45  31  58 N15       30.18R
LUBBOCK        MOCLDY    41  14  33 NE22      30.15R
EL PASO        PTCLDY    46  -8  10 N5        30.04R
$$

...MARINE OBSERVATIONS...

STATION/POSITION TIME  SKY/WX   TEMP    WIND        PRES    VSBY  WAVE   SWELL
                                AIR SEA DIR/SP/G                  HT/PER HT/PER
                 (UTC)          (F)     (DEG/KT/KT) (MB)    (MI)  (FT/S) (FT/S)
PORT ARANSAS     0700            63 58  110/ 10/ 10 1010.7F
MALAQUITE BEACH  0630            64     110/ 11/ 12   N/A
BUOY 90 E PORT A 0650            72 70  150/ 10/ 12 1012.5R         5/ 7   5/ 7
BUOY 45 SE BAFFI NOT AVBL
BUOY 200 E PT IS 0650            72 72              1012.8F         5/ 7   3/ 7
BUOY 15 E GALVES 0650            61 57  110/  6/  8 1012.9F
$$



USA.gov is the U.S. government's official web portal to all federal, state and local government web resources and services.